| time (UTC) | temp F | wind direction | speed MPH | gust MPH | rain 1hr in | rain 24hr in | rain mn in | humidity % | barometer mb |
| 20260504204810 | 72 | 222 | 5.0 | 10.0 | 0.00 | 0.00 | 0.00 | 36 | 1009.4 |
| 20260504203756 | 73 | 241 | 5.0 | 9.0 | 0.00 | 0.00 | 0.00 | 35 | 1009.2 |
| 20260504202742 | 71 | 209 | 4.0 | 7.0 | 0.00 | 0.00 | 0.00 | 36 | 1009.5 |
| 20260504201728 | 73 | 203 | 7.0 | 11.0 | 0.00 | 0.00 | 0.00 | 35 | 1009.2 |
| 20260504200714 | 72 | 192 | 4.0 | 13.0 | 0.00 | 0.00 | 0.00 | 35 | 1009.7 |
| 20260504195701 | 71 | 235 | 7.0 | 13.0 | 0.00 | 0.00 | 0.00 | 35 | 1009.5 |
| 20260504194707 | 72 | 212 | 4.0 | 7.0 | 0.00 | 0.00 | 0.00 | 36 | 1009.6 |
| 20260504193633 | 70 | 251 | 3.0 | 8.0 | 0.00 | 0.00 | 0.00 | 36 | 1009.9 |
| 20260504193146 | 71 | 244 | 6.0 | 8.0 | 0.00 | 0.00 | 0.00 | 36 | 1010.0 |
| 20260504192112 | 72 | 207 | 8.0 | 14.0 | 0.00 | 0.00 | 0.00 | 35 | 1010.0 |
| 20260504191059 | 72 | 144 | 4.0 | 8.0 | 0.00 | 0.00 | 0.00 | 36 | 1010.1 |
| 20260504190044 | 71 | 220 | 4.0 | 7.0 | 0.00 | 0.00 | 0.00 | 35 | 1010.4 |
| 20260504185031 | 70 | 251 | 7.0 | 11.0 | 0.00 | 0.00 | 0.00 | 36 | 1010.6 |
| 20260504184017 | 72 | 248 | 4.0 | 10.0 | 0.00 | 0.00 | 0.00 | 35 | 1010.4 |
| 20260504183004 | 70 | 216 | 7.0 | 15.0 | 0.00 | 0.00 | 0.00 | 36 | 1010.9 |
| 20260504181949 | 71 | 245 | 6.0 | 8.0 | 0.00 | 0.00 | 0.00 | 37 | 1010.8 |
| 20260504180936 | 70 | 196 | 5.0 | 8.0 | 0.00 | 0.00 | 0.00 | 35 | 1010.9 |
| 20260504175922 | 71 | 244 | 10.0 | 13.0 | 0.00 | 0.00 | 0.00 | 35 | 1011.2 |
| 20260504174909 | 69 | 193 | 4.0 | 10.0 | 0.00 | 0.00 | 0.00 | 36 | 1011.3 |
| 20260504173855 | 70 | 256 | 3.0 | 9.0 | 0.00 | 0.00 | 0.00 | 35 | 1011.4 |
| 20260504172900 | 68 | 230 | 7.0 | 9.0 | 0.00 | 0.00 | 0.00 | 37 | 1011.5 |
| 20260504171827 | 69 | 175 | 6.0 | 10.0 | 0.00 | 0.00 | 0.00 | 36 | 1011.7 |
| 20260504170812 | 68 | 193 | 4.0 | 10.0 | 0.00 | 0.00 | 0.00 | 36 | 1011.9 |
| 20260504151029 | 65 | 237 | 4.0 | 10.0 | 0.00 | 0.00 | 0.00 | 43 | 1012.9 |
| 20260504140907 | 61 | 185 | 2.0 | 3.0 | 0.00 | 0.00 | 0.00 | 52 | 1013.2 |
| 20260504130743 | 57 | 165 | 4.0 | 11.0 | 0.00 | 0.00 | 0.00 | 62 | 1013.8 |
| 20260504120135 | 51 | 207 | 4.0 | 6.0 | 0.00 | 0.00 | 0.00 | 74 | 1013.9 |
| 20260504081633 | 47 | 203 | 1.0 | 2.0 | 0.00 | 0.00 | 0.00 | 62 | 1014.0 |
| 20260504080558 | 47 | 200 | 0.0 | 2.0 | 0.00 | 0.00 | 0.00 | 62 | 1014.0 |
| 20260504045647 | 47 | 0.0 | 0.0 | 0.00 | 0.00 | 0.00 | 58 | 1013.8 | |
| 20260504045156 | 47 | 0.0 | 0.0 | 0.00 | 0.00 | 0.00 | 58 | 1014.0 | |
| 20260504044123 | 47 | 0.0 | 1.0 | 0.00 | 0.00 | 0.00 | 58 | 1013.9 | |
| 20260504043109 | 48 | 212 | 1.0 | 1.0 | 0.00 | 0.00 | 0.00 | 57 | 1013.9 |
| 20260504042056 | 48 | 0.0 | 0.0 | 0.00 | 0.00 | 0.00 | 58 | 1013.7 | |
| 20260504041041 | 48 | 210 | 0.0 | 1.0 | 0.00 | 0.00 | 0.00 | 58 | 1013.5 |
| 20260504040108 | 49 | 208 | 0.0 | 1.0 | 0.00 | 0.00 | 0.00 | 56 | 1013.6 |
| 20260504035014 | 48 | 211 | 0.0 | 2.0 | 0.00 | 0.00 | 0.00 | 57 | 1013.5 |
| 20260504034000 | 47 | 0.0 | 0.0 | 0.00 | 0.00 | 0.00 | 61 | 1013.4 | |
| 20260504033005 | 48 | 0.0 | 0.0 | 0.00 | 0.00 | 0.00 | 60 | 1013.4 | |
| 20260504031931 | 48 | 0.0 | 0.0 | 0.00 | 0.00 | 0.00 | 58 | 1013.5 | |
| 20260504030918 | 48 | 0.0 | 0.0 | 0.00 | 0.00 | 0.00 | 57 | 1013.4 | |
| 20260504025904 | 48 | 0.0 | 0.0 | 0.00 | 0.00 | 0.00 | 56 | 1013.3 | |
| 20260504024851 | 50 | 207 | 1.0 | 1.0 | 0.00 | 0.00 | 0.00 | 54 | 1013.5 |
| 20260504023837 | 50 | 214 | 2.0 | 2.0 | 0.00 | 0.00 | 0.00 | 51 | 1013.5 |
| 20260504022843 | 50 | 207 | 1.0 | 2.0 | 0.00 | 0.00 | 0.00 | 52 | 1013.3 |
| 20260504021808 | 50 | 206 | 0.0 | 1.0 | 0.00 | 0.00 | 0.00 | 52 | 1013.4 |
| 20260504020835 | 51 | 208 | 0.0 | 1.0 | 0.00 | 0.00 | 0.00 | 50 | 1013.4 |
| 20260504015741 | 51 | 210 | 0.0 | 1.0 | 0.00 | 0.00 | 0.00 | 50 | 1013.2 |
| 20260504014727 | 52 | 213 | 0.0 | 1.0 | 0.00 | 0.00 | 0.00 | 47 | 1013.4 |
| 20260504013713 | 53 | 212 | 1.0 | 2.0 | 0.00 | 0.00 | 0.00 | 45 | 1012.9 |
| 20260504012700 | 53 | 204 | 0.0 | 1.0 | 0.00 | 0.00 | 0.00 | 45 | 1012.8 |
| 20260504011646 | 53 | 230 | 3.0 | 3.0 | 0.00 | 0.00 | 0.00 | 43 | 1012.7 |
| 20260504011200 | 54 | 205 | 1.0 | 2.0 | 0.00 | 0.00 | 0.00 | 44 | 1012.9 |
| 20260504010126 | 54 | 210 | 1.0 | 2.0 | 0.00 | 0.00 | 0.00 | 43 | 1012.7 |
| 20260504005112 | 55 | 229 | 2.0 | 3.0 | 0.00 | 0.00 | 0.00 | 42 | 1012.5 |
| 20260504004118 | 55 | 207 | 0.0 | 2.0 | 0.00 | 0.00 | 0.00 | 41 | 1012.4 |
| 20260504003043 | 56 | 215 | 1.0 | 2.0 | 0.00 | 0.00 | 0.00 | 40 | 1012.4 |
| 20260504002050 | 56 | 206 | 0.0 | 3.0 | 0.00 | 0.00 | 0.00 | 39 | 1012.3 |
| 20260504001017 | 57 | 245 | 4.0 | 6.0 | 0.00 | 0.00 | 0.00 | 38 | 1012.2 |
| 20260504000003 | 57 | 254 | 6.0 | 7.0 | 0.00 | 0.00 | 0.00 | 37 | 1011.9 |
| 20260503235010 | 58 | 215 | 1.0 | 7.0 | 0.00 | 0.00 | 0.00 | 36 | 1012.2 |
| 20260503233936 | 59 | 288 | 5.0 | 7.0 | 0.00 | 0.00 | 0.00 | 35 | 1011.9 |
| 20260503232922 | 59 | 247 | 6.0 | 10.0 | 0.00 | 0.00 | 0.00 | 35 | 1011.8 |
| 20260503231909 | 59 | 249 | 9.0 | 11.0 | 0.00 | 0.00 | 0.00 | 34 | 1011.7 |
| 20260503230915 | 59 | 244 | 5.0 | 11.0 | 0.00 | 0.00 | 0.00 | 34 | 1011.7 |
| 20260503225841 | 59 | 348 | 7.0 | 11.0 | 0.00 | 0.00 | 0.00 | 34 | 1011.6 |
| 20260503224828 | 59 | 227 | 8.0 | 16.0 | 0.00 | 0.00 | 0.00 | 33 | 1011.7 |
| 20260503223814 | 59 | 248 | 10.0 | 13.0 | 0.00 | 0.00 | 0.00 | 33 | 1011.6 |
| 20260503222821 | 59 | 242 | 9.0 | 14.0 | 0.00 | 0.00 | 0.00 | 33 | 1011.6 |
| 20260503221747 | 59 | 272 | 9.0 | 21.0 | 0.00 | 0.00 | 0.00 | 32 | 1011.8 |
| 20260503220733 | 60 | 278 | 6.0 | 16.0 | 0.00 | 0.00 | 0.00 | 32 | 1011.6 |
| 20260503215719 | 60 | 299 | 8.0 | 10.0 | 0.00 | 0.00 | 0.00 | 31 | 1011.5 |
| 20260503214726 | 59 | 246 | 3.0 | 6.0 | 0.00 | 0.00 | 0.00 | 32 | 1011.4 |
| 20260503213652 | 59 | 316 | 10.0 | 14.0 | 0.00 | 0.00 | 0.00 | 32 | 1011.5 |
| 20260503212638 | 59 | 352 | 8.0 | 15.0 | 0.00 | 0.00 | 0.00 | 32 | 1011.4 |
| 20260503211646 | 59 | 331 | 8.0 | 13.0 | 0.00 | 0.00 | 0.00 | 32 | 1011.6 |
| 20260503211118 | 59 | 201 | 7.0 | 18.0 | 0.00 | 0.00 | 0.00 | 33 | 1011.6 |
| 20260503210105 | 59 | 267 | 6.0 | 14.0 | 0.00 | 0.00 | 0.00 | 33 | 1011.6 |
| 20260503205051 | 59 | 241 | 10.0 | 14.0 | 0.00 | 0.00 | 0.00 | 32 | 1011.5 |